When you browse on this site, cookies collect data to enhance your experience and personalize the content and advertising you see.
Visit our Privacy Policy to learn more. By continuing to use the site, you agree to this use of cookies and data.
  • In Portugal
  • List of Countries
  • For 7 days
  • Water Temperature
  • Satellite Maps
  • Weather Map
  • Weather Widgets
  • user-avatar
    Login

    Hourly Weather Rozana

    Today, 21 March, Thursday

    Time Temperature Precipitation Wind Pressure Humidity
    00:00 +2°C° 0 mm 2 mps 739 mmHg 68%
    01:00 +3°C° 0 mm 2 mps 739 mmHg 68%
    02:00 +2°C° 0 mm 2 mps 739 mmHg 68%
    03:00 +2°C° 0 mm 2 mps 739 mmHg 68%
    04:00 +2°C° 0 mm 2 mps 739 mmHg 69%
    05:00 +3°C° 0 mm 2 mps 739 mmHg 69%
    06:00 +3°C° 0 mm 2 mps 739 mmHg 69%
    07:00 +3°C° 0 mm 2 mps 739 mmHg 69%
    08:00 +5°C° 0 mm 2 mps 739 mmHg 67%
    09:00 +7°C° 0 mm 2 mps 739 mmHg 65%
    10:00 +9°C° 0 mm 2 mps 740 mmHg 62%
    11:00 +10°C° 0 mm 2 mps 740 mmHg 61%
    12:00 +12°C° 0 mm 2 mps 739 mmHg 60%
    13:00 +13°C° 0 mm 2 mps 739 mmHg 59%
    14:00 +13°C° 0 mm 2 mps 739 mmHg 60%
    15:00 +13°C° 0 mm 2 mps 739 mmHg 60%
    16:00 +13°C° 0 mm 2 mps 738 mmHg 61%
    17:00 +12°C° 0 mm 1 mps 738 mmHg 66%
    18:00 +11°C° 0 mm 1 mps 738 mmHg 71%
    19:00 +10°C° 0 mm 1 mps 738 mmHg 77%
    20:00 +9°C° 0 mm 1 mps 738 mmHg 79%
    21:00 +8°C° 0 mm 1 mps 738 mmHg 81%
    22:00 +8°C° 0 mm 1 mps 738 mmHg 83%
    23:00 +8°C° 0 mm 1 mps 738 mmHg 84%

    Tomorrow, 22 March, Friday

    Time Temperature Precipitation Wind Pressure Humidity
    00:00 +7°C° 0 mm 1 mps 738 mmHg 85%
    01:00 +7°C° 0 mm 1 mps 738 mmHg 85%
    02:00 +7°C° 0 mm 1 mps 738 mmHg 86%
    03:00 +7°C° 0 mm 1 mps 738 mmHg 86%
    04:00 +7°C° 0 mm 1 mps 738 mmHg 87%
    05:00 +7°C° 0 mm 1 mps 738 mmHg 87%
    06:00 +7°C° 0 mm 1 mps 738 mmHg 86%
    07:00 +8°C° 0 mm 1 mps 738 mmHg 86%
    08:00 +9°C° 0 mm 1 mps 739 mmHg 81%
    09:00 +11°C° 0 mm 1 mps 739 mmHg 76%
    10:00 +13°C° 0 mm 1 mps 739 mmHg 71%
    11:00 +13°C° 0 mm 2 mps 739 mmHg 69%
    12:00 +14°C° 0 mm 2 mps 739 mmHg 68%
    13:00 +15°C° 0 mm 2 mps 739 mmHg 67%
    14:00 +14°C° 0 mm 2 mps 738 mmHg 68%
    15:00 +14°C° 0 mm 2 mps 738 mmHg 69%
    16:00 +14°C° 0 mm 2 mps 737 mmHg 70%
    17:00 +13°C° 0 mm 1 mps 737 mmHg 76%
    18:00 +11°C° 0 mm 1 mps 737 mmHg 82%
    19:00 +10°C° 0 mm 1 mps 737 mmHg 87%
    20:00 +9°C° 0 mm 1 mps 737 mmHg 89%
    21:00 +9°C° 0 mm 1 mps 737 mmHg 90%
    22:00 +8°C° 0 mm 1 mps 737 mmHg 92%
    23:00 +8°C° 0 mm 1 mps 736 mmHg 92%

    Day after tomorrow, 23 March, Saturday

    Time Temperature Precipitation Wind Pressure Humidity
    00:00 +8°C° 0 mm 1 mps 736 mmHg 92%
    01:00 +7°C° 0 mm 2 mps 736 mmHg 92%
    02:00 +7°C° 0 mm 2 mps 735 mmHg 92%
    03:00 +7°C° 0 mm 2 mps 735 mmHg 91%
    04:00 +7°C° 0 mm 2 mps 735 mmHg 90%
    05:00 +7°C° 0 mm 2 mps 735 mmHg 89%
    06:00 +7°C° 0 mm 2 mps 735 mmHg 88%
    07:00 +8°C° 0 mm 2 mps 735 mmHg 87%
    08:00 +10°C° 0 mm 2 mps 735 mmHg 78%
    09:00 +13°C° 0 mm 2 mps 735 mmHg 69%
    10:00 +15°C° 0 mm 2 mps 735 mmHg 60%
    11:00 +16°C° 0 mm 2 mps 734 mmHg 56%
    12:00 +17°C° 0 mm 2 mps 734 mmHg 52%
    13:00 +18°C° 0 mm 2 mps 734 mmHg 48%
    14:00 +18°C° 0 mm 2 mps 734 mmHg 48%
    15:00 +18°C° 0 mm 2 mps 733 mmHg 48%
    16:00 +18°C° 0 mm 2 mps 733 mmHg 48%
    17:00 +17°C° 0 mm 2 mps 733 mmHg 54%
    18:00 +15°C° 0 mm 2 mps 733 mmHg 60%
    19:00 +13°C° 0 mm 1 mps 733 mmHg 66%
    20:00 +13°C° 0 mm 2 mps 733 mmHg 69%
    21:00 +13°C° 0 mm 2 mps 733 mmHg 72%
    22:00 +12°C° 0 mm 2 mps 734 mmHg 75%
    23:00 +10°C° 0 mm 3 mps 734 mmHg 80%

    24 March, Sunday

    Time Temperature Precipitation Wind Pressure Humidity
    00:00 +9°C° 0 mm 3 mps 734 mmHg 85%
    01:00 +7°C° 0 mm 4 mps 734 mmHg 90%
    02:00 +7°C° 0.1 mm 4 mps 734 mmHg 88%
    03:00 +6°C° 0.1 mm 4 mps 734 mmHg 86%
    04:00 +5°C° 0.1 mm 3 mps 734 mmHg 84%
    05:00 +5°C° 0 mm 3 mps 734 mmHg 79%
    06:00 +4°C° 0 mm 3 mps 734 mmHg 75%
    07:00 +5°C° 0 mm 2 mps 734 mmHg 71%
    08:00 +5°C° 0 mm 2 mps 735 mmHg 67%
    09:00 +5°C° 0 mm 2 mps 735 mmHg 62%
    10:00 +6°C° 0 mm 2 mps 735 mmHg 58%
    11:00 +7°C° 0 mm 2 mps 734 mmHg 55%
    12:00 +7°C° 0 mm 2 mps 734 mmHg 53%
    13:00 +8°C° 0 mm 2 mps 734 mmHg 50%
    14:00 +8°C° 0 mm 3 mps 734 mmHg 49%
    15:00 +8°C° 0 mm 3 mps 733 mmHg 48%
    16:00 +9°C° 0 mm 3 mps 733 mmHg 47%
    17:00 +8°C° 0 mm 3 mps 733 mmHg 50%
    18:00 +7°C° 0 mm 2 mps 733 mmHg 53%
    19:00 +6°C° 0 mm 2 mps 733 mmHg 55%
    20:00 +5°C° 0 mm 2 mps 733 mmHg 59%
    21:00 +5°C° 0 mm 1 mps 733 mmHg 62%
    22:00 +4°C° 0 mm 1 mps 733 mmHg 66%
    23:00 +3°C° 0 mm 1 mps 733 mmHg 67%

    25 March, Monday

    Time Temperature Precipitation Wind Pressure Humidity
    00:00 +3°C° 0 mm 1 mps 733 mmHg 69%
    01:00 +3°C° 0 mm 1 mps 733 mmHg 71%
    02:00 +2°C° 0 mm 1 mps 733 mmHg 72%
    03:00 +2°C° 0 mm 1 mps 733 mmHg 73%
    04:00 +2°C° 0 mm 1 mps 733 mmHg 74%
    05:00 +1°C° 0 mm 2 mps 733 mmHg 72%
    06:00 +2°C° 0 mm 2 mps 733 mmHg 70%
    07:00 +2°C° 0 mm 2 mps 733 mmHg 68%
    08:00 +2°C° 0 mm 3 mps 733 mmHg 61%
    09:00 +3°C° 0 mm 5 mps 733 mmHg 55%
    10:00 +4°C° 0 mm 6 mps 733 mmHg 48%
    11:00 +5°C° 0 mm 6 mps 732 mmHg 50%
    12:00 +5°C° 0 mm 7 mps 732 mmHg 52%
    13:00 +5°C° 0 mm 8 mps 731 mmHg 55%
    14:00 +5°C° 0.1 mm 7 mps 731 mmHg 56%
    15:00 +5°C° 0.1 mm 7 mps 731 mmHg 56%
    16:00 +4°C° 0.1 mm 7 mps 730 mmHg 57%
    17:00 +4°C° 0.1 mm 6 mps 730 mmHg 62%
    18:00 +3°C° 0.1 mm 5 mps 730 mmHg 67%
    19:00 +4°C° 0.1 mm 4 mps 730 mmHg 72%
    20:00 +3°C° 0.1 mm 4 mps 730 mmHg 73%
    21:00 +1°C° 0.1 mm 5 mps 730 mmHg 74%
    22:00 0°C° 0.1 mm 5 mps 730 mmHg 74%
    23:00 +1°C° 0.2 mm 5 mps 729 mmHg 76%

    26 March, Tuesday

    Time Temperature Precipitation Wind Pressure Humidity
    00:00 +1°C° 0.2 mm 6 mps 729 mmHg 77%
    01:00 +1°C° 0.2 mm 6 mps 729 mmHg 79%
    02:00 -1°C° 0 mm 6 mps 729 mmHg 79%
    03:00 -1°C° 0 mm 5 mps 729 mmHg 79%
    04:00 -1°C° 0 mm 5 mps 728 mmHg 79%
    05:00 -2°C° 0 mm 6 mps 728 mmHg 77%
    06:00 -2°C° 0 mm 6 mps 728 mmHg 76%
    07:00 -2°C° 0 mm 7 mps 728 mmHg 75%
    08:00 -2°C° 0.1 mm 8 mps 729 mmHg 70%
    09:00 -1°C° 0.1 mm 8 mps 729 mmHg 66%
    10:00 0°C° 0.1 mm 9 mps 729 mmHg 61%
    11:00 +1°C° 0.1 mm 9 mps 730 mmHg 55%
    12:00 +1°C° 0.1 mm 9 mps 730 mmHg 49%
    13:00 +2°C° 0.1 mm 9 mps 730 mmHg 43%
    14:00 +2°C° 0 mm 8 mps 730 mmHg 43%
    15:00 +2°C° 0 mm 8 mps 731 mmHg 42%
    16:00 +2°C° 0 mm 8 mps 731 mmHg 42%
    17:00 +2°C° 0 mm 7 mps 731 mmHg 49%
    18:00 +1°C° 0 mm 5 mps 732 mmHg 56%
    19:00 0°C° 0 mm 4 mps 732 mmHg 62%
    20:00 -1°C° 0 mm 4 mps 733 mmHg 65%
    21:00 -1°C° 0 mm 3 mps 733 mmHg 67%
    22:00 -1°C° 0 mm 3 mps 734 mmHg 70%
    23:00 -2°C° 0 mm 3 mps 734 mmHg 72%
    Show more